User: anonymous   Login
Location: Unspecified
(0.0000°N, 0.0000°E)
Time: 23:04:05
(UTC+02:00)
Language:

ARIANE 5 R/B - Orbit

View from above orbital plane
View from above orbital plane
View from above satellite
View from above satellite

Ground track
Ground track

The orbit data is extracted from the following two-line orbital elements,

1 29646U 06054D   15244.08606856  .00004750  00000-0  11336-2 0  9999
2 29646   2.7266 271.5052 7131155  69.7242 350.9172  2.47406711 75356
Epoch (UTC): 01 September 2015 02:03:56
Eccentricity: 0.7131155
inclination: 2.7266°
perigee height: 246 km
apogee height: 33181 km
right ascension of ascending node: 271.5052°
argument of perigee: 69.7242°
revolutions per day: 2.47406711
mean anomaly at epoch: 350.9172°
orbit number at epoch: 7535

The dashed part of the orbit path shows where the satellite is in the earth's shadow,  

DLR